Location: Barcelona
(41.3830°N, 2.1830°E)
Time: 13:54:03
(UTC+01:00)

ISS - Pass Details

Date: 11 December 2017
Orbit: 402 x 406 km, 51.6° (Epoch: 16 December)

Event Time Altitude Azimuth Distance (km) Brightness Sun altitude
Rises 18:09:12 0° 309° (NW) 2,331 0.4 -8.8°
Reaches altitude 10° 18:11:45 10° 329° (NNW) 1,469 -0.9 -9.2°
Maximum altitude 18:14:06 18° 15° (NNE) 1,082 -2.0 -9.6°
Enters shadow 18:15:41 14° 49° (NE) 1,272 -1.9 -9.9°
